• In Germany
  • List of Countries
  • For 7 days
  • Water Temperature
  • Satellite Maps
  • Weather Map
  • Weather Widgets
  • user-avatar
    Login

    Hourly Weather Kapan

    Today, 21 July, Friday

    Time Temperature Precipitation Wind Pressure Humidity
    00:00 +24°C° 0 mm 2 mps 682 mmHg 41%
    01:00 +24°C° 0 mm 2 mps 682 mmHg 40%
    02:00 +24°C° 0 mm 2 mps 682 mmHg 39%
    03:00 +23°C° 0 mm 2 mps 682 mmHg 39%
    04:00 +24°C° 0 mm 2 mps 682 mmHg 37%
    05:00 +25°C° 0 mm 2 mps 683 mmHg 35%
    06:00 +25°C° 0 mm 2 mps 683 mmHg 33%
    07:00 +27°C° 0 mm 2 mps 684 mmHg 28%
    08:00 +30°C° 0 mm 2 mps 684 mmHg 23%
    09:00 +32°C° 0 mm 2 mps 684 mmHg 18%
    10:00 +34°C° 0 mm 3 mps 684 mmHg 17%
    11:00 +35°C° 0 mm 3 mps 684 mmHg 16%
    12:00 +36°C° 0 mm 3 mps 684 mmHg 15%
    13:00 +37°C° 0 mm 4 mps 684 mmHg 15%
    14:00 +37°C° 0 mm 4 mps 684 mmHg 15%
    15:00 +37°C° 0 mm 4 mps 683 mmHg 15%
    16:00 +36°C° 0 mm 4 mps 683 mmHg 16%
    17:00 +35°C° 0 mm 4 mps 683 mmHg 18%
    18:00 +34°C° 0 mm 4 mps 683 mmHg 19%
    19:00 +31°C° 0 mm 3 mps 683 mmHg 22%
    20:00 +28°C° 0 mm 3 mps 683 mmHg 25%
    21:00 +26°C° 0 mm 2 mps 683 mmHg 28%
    22:00 +26°C° 0 mm 2 mps 683 mmHg 30%
    23:00 +25°C° 0 mm 2 mps 683 mmHg 31%

    Tomorrow, 22 July, Saturday

    Time Temperature Precipitation Wind Pressure Humidity
    00:00 +24°C° 0 mm 2 mps 683 mmHg 33%
    01:00 +24°C° 0 mm 2 mps 683 mmHg 34%
    02:00 +24°C° 0 mm 2 mps 684 mmHg 35%
    03:00 +23°C° 0 mm 2 mps 684 mmHg 36%
    04:00 +24°C° 0 mm 2 mps 684 mmHg 35%
    05:00 +25°C° 0 mm 2 mps 684 mmHg 34%
    06:00 +25°C° 0 mm 2 mps 685 mmHg 33%
    07:00 +27°C° 0 mm 2 mps 685 mmHg 29%
    08:00 +29°C° 0 mm 3 mps 685 mmHg 25%
    09:00 +31°C° 0 mm 3 mps 686 mmHg 21%
    10:00 +34°C° 0 mm 3 mps 686 mmHg 20%
    11:00 +35°C° 0 mm 3 mps 685 mmHg 19%
    12:00 +36°C° 0 mm 4 mps 685 mmHg 18%
    13:00 +36°C° 0 mm 4 mps 685 mmHg 18%
    14:00 +37°C° 0 mm 4 mps 684 mmHg 18%
    15:00 +37°C° 0 mm 4 mps 684 mmHg 18%
    16:00 +36°C° 0 mm 4 mps 684 mmHg 21%
    17:00 +35°C° 0 mm 4 mps 683 mmHg 23%
    18:00 +34°C° 0 mm 4 mps 683 mmHg 25%
    19:00 +31°C° 0 mm 3 mps 683 mmHg 30%
    20:00 +28°C° 0 mm 3 mps 683 mmHg 35%
    21:00 +26°C° 0 mm 2 mps 683 mmHg 40%
    22:00 +26°C° 0 mm 2 mps 683 mmHg 41%
    23:00 +25°C° 0 mm 2 mps 683 mmHg 42%

    Day after tomorrow, 23 July, Sunday

    Time Temperature Precipitation Wind Pressure Humidity
    00:00 +25°C° 0 mm 2 mps 683 mmHg 42%
    01:00 +25°C° 0 mm 2 mps 683 mmHg 42%
    02:00 +24°C° 0 mm 2 mps 683 mmHg 42%
    03:00 +24°C° 0 mm 2 mps 682 mmHg 43%
    04:00 +25°C° 0 mm 2 mps 682 mmHg 41%
    05:00 +25°C° 0 mm 2 mps 683 mmHg 39%
    06:00 +26°C° 0 mm 1 mps 683 mmHg 37%
    07:00 +28°C° 0 mm 2 mps 683 mmHg 33%
    08:00 +30°C° 0 mm 2 mps 683 mmHg 28%
    09:00 +34°C° 0 mm 2 mps 684 mmHg 23%
    10:00 +35°C° 0 mm 3 mps 683 mmHg 21%
    11:00 +36°C° 0 mm 3 mps 683 mmHg 20%
    12:00 +37°C° 0 mm 3 mps 683 mmHg 18%
    13:00 +38°C° 0 mm 3 mps 682 mmHg 18%
    14:00 +38°C° 0 mm 4 mps 682 mmHg 18%
    15:00 +38°C° 0 mm 4 mps 681 mmHg 18%
    16:00 +37°C° 0 mm 4 mps 681 mmHg 21%
    17:00 +36°C° 0 mm 4 mps 680 mmHg 23%
    18:00 +35°C° 0 mm 4 mps 680 mmHg 25%
    19:00 +31°C° 0 mm 3 mps 680 mmHg 29%
    20:00 +29°C° 0 mm 3 mps 680 mmHg 33%
    21:00 +27°C° 0 mm 2 mps 680 mmHg 38%
    22:00 +26°C° 0 mm 2 mps 680 mmHg 38%
    23:00 +26°C° 0 mm 2 mps 680 mmHg 39%

    24 July, Monday

    Time Temperature Precipitation Wind Pressure Humidity
    00:00 +25°C° 0 mm 2 mps 680 mmHg 40%
    01:00 +25°C° 0 mm 2 mps 680 mmHg 40%
    02:00 +25°C° 0 mm 2 mps 680 mmHg 40%
    03:00 +24°C° 0 mm 2 mps 680 mmHg 40%
    04:00 +25°C° 0 mm 2 mps 681 mmHg 39%
    05:00 +25°C° 0 mm 2 mps 681 mmHg 38%
    06:00 +25°C° 0 mm 2 mps 681 mmHg 37%
    07:00 +27°C° 0 mm 2 mps 681 mmHg 34%
    08:00 +29°C° 0 mm 2 mps 682 mmHg 30%
    09:00 +31°C° 0 mm 3 mps 682 mmHg 26%
    10:00 +33°C° 0 mm 3 mps 682 mmHg 24%
    11:00 +35°C° 0 mm 3 mps 681 mmHg 23%
    12:00 +36°C° 0 mm 3 mps 681 mmHg 21%
    13:00 +36°C° 0 mm 4 mps 681 mmHg 21%
    14:00 +37°C° 0 mm 4 mps 681 mmHg 21%
    15:00 +37°C° 0 mm 4 mps 680 mmHg 20%
    16:00 +36°C° 0 mm 4 mps 680 mmHg 23%
    17:00 +35°C° 0 mm 4 mps 680 mmHg 26%
    18:00 +33°C° 0 mm 4 mps 680 mmHg 29%
    19:00 +30°C° 0 mm 3 mps 680 mmHg 35%
    20:00 +28°C° 0 mm 3 mps 680 mmHg 41%
    21:00 +26°C° 0 mm 2 mps 680 mmHg 47%
    22:00 +25°C° 0 mm 2 mps 680 mmHg 49%
    23:00 +25°C° 0 mm 2 mps 680 mmHg 50%

    25 July, Tuesday

    Time Temperature Precipitation Wind Pressure Humidity
    00:00 +24°C° 0 mm 2 mps 680 mmHg 52%
    01:00 +24°C° 0 mm 2 mps 680 mmHg 53%
    02:00 +24°C° 0 mm 2 mps 680 mmHg 54%
    03:00 +23°C° 0 mm 2 mps 680 mmHg 55%
    04:00 +24°C° 0 mm 2 mps 681 mmHg 54%
    05:00 +24°C° 0 mm 2 mps 681 mmHg 52%
    06:00 +24°C° 0 mm 2 mps 681 mmHg 51%
    07:00 +26°C° 0 mm 2 mps 682 mmHg 45%
    08:00 +28°C° 0 mm 3 mps 682 mmHg 40%
    09:00 +30°C° 0 mm 3 mps 682 mmHg 34%
    10:00 +31°C° 0 mm 3 mps 682 mmHg 31%
    11:00 +34°C° 0 mm 3 mps 682 mmHg 29%
    12:00 +35°C° 0 mm 4 mps 681 mmHg 27%
    13:00 +35°C° 0 mm 4 mps 681 mmHg 26%
    14:00 +36°C° 0 mm 4 mps 680 mmHg 25%
    15:00 +36°C° 0 mm 4 mps 680 mmHg 24%
    16:00 +35°C° 0 mm 4 mps 680 mmHg 27%
    17:00 +34°C° 0 mm 4 mps 680 mmHg 30%
    18:00 +33°C° 0 mm 4 mps 679 mmHg 32%
    19:00 +30°C° 0 mm 3 mps 680 mmHg 39%
    20:00 +28°C° 0 mm 2 mps 680 mmHg 46%
    21:00 +25°C° 0 mm 2 mps 680 mmHg 53%
    22:00 +25°C° 0 mm 2 mps 680 mmHg 54%
    23:00 +24°C° 0 mm 1 mps 680 mmHg 55%

    26 July, Wednesday

    Time Temperature Precipitation Wind Pressure Humidity
    00:00 +24°C° 0 mm 1 mps 680 mmHg 56%
    01:00 +24°C° 0 mm 1 mps 680 mmHg 57%
    02:00 +23°C° 0 mm 1 mps 681 mmHg 57%
    03:00 +23°C° 0 mm 1 mps 681 mmHg 57%
    04:00 +24°C° 0 mm 1 mps 681 mmHg 55%
    05:00 +24°C° 0 mm 1 mps 682 mmHg 53%
    06:00 +25°C° 0 mm 1 mps 682 mmHg 50%
    07:00 +27°C° 0 mm 2 mps 682 mmHg 44%
    08:00 +29°C° 0 mm 2 mps 682 mmHg 38%
    09:00 +31°C° 0 mm 2 mps 683 mmHg 31%
    10:00 +34°C° 0 mm 3 mps 683 mmHg 28%
    11:00 +35°C° 0 mm 3 mps 682 mmHg 25%
    12:00 +36°C° 0 mm 4 mps 682 mmHg 22%
    13:00 +37°C° 0 mm 4 mps 682 mmHg 22%
    14:00 +37°C° 0 mm 4 mps 682 mmHg 21%
    15:00 +37°C° 0 mm 4 mps 682 mmHg 21%
    16:00 +36°C° 0 mm 4 mps 682 mmHg 24%
    17:00 +35°C° 0 mm 4 mps 682 mmHg 26%
    18:00 +34°C° 0 mm 4 mps 682 mmHg 29%
    19:00 +30°C° 0 mm 3 mps 682 mmHg 36%
    20:00 +28°C° 0 mm 2 mps 682 mmHg 43%
    21:00 +26°C° 0 mm 2 mps 682 mmHg 49%
    22:00 +25°C° 0 mm 2 mps 682 mmHg 51%
    23:00 +25°C° 0 mm 2 mps 682 mmHg 52%
    Show more